Weather History for Canby, MN

Change the Weather History Date:

Saturday, February 2, 2013

  Actual Average (KMML) Record (KMML)
Temperature  
Mean Temperature 16 °F -  
Max Temperature 31 °F 22 °F 59 °F (1991)
Min Temperature 1 °F 1 °F -20 °F (1978)
Degree Days  
Heating Degree Days 49    
Moisture  
Dew Point 9 °F    
Average Humidity 86    
Maximum Humidity 92    
Minimum Humidity 81    
Precipitation  
Precipitation 0.00 in - - ()
Sea Level Pressure  
Sea Level Pressure 30.06 in    
Wind  
Wind Speed 8 mph (NW)    
Max Wind Speed 26 mph    
Max Gust Speed 32 mph    
Visibility 8 miles    
Events Snow    
Averages and records for this station are not official NWS values.
T = Trace of Precipitation, MM = Missing Value Source: NWS Daily Summary

Daily Weather History Graph

Daily Weather History Graph

Search for Another Location

Airport:

Trip Planner

Search our weather history database for the weather conditions in past years. The results will help you decide how hot, cold, wet, or windy it might be!

Date:

Astronomy

Feb. 02, 2013 Rise Set
Actual Time 7:42 AM CST 5:35 PM CST
Civil Twilight 7:11 AM CST 6:06 PM CST
Nautical Twilight 6:36 AM CST 6:41 PM CST
Astronomical Twilight 6:02 AM CST 7:15 PM CST
Moon 12:01 AM CST (2/2) 10:34 AM CST (2/2)
Length of Visible Light 10h 54m
Length of Day
9h 52m
Waning Gibbous, 59% of the Moon is Illuminated
Feb 2
Waning Gibbous
Feb 3
Last Quarter
Feb 10
New
Feb 17
First Quarter
Feb 25
Full

Hourly Weather History & Observations

Time (CST) Temp. Windchill Dew Point Humidity Pressure Visibility Wind Dir Wind Speed Gust Speed Precip Events Conditions
12:15 AM 10.0 °F -2.9 °F 7.2 °F 88% 30.07 in 10.0 mi NW 9.2 mph - N/A   Clear
12:35 AM 9.9 °F -3.1 °F 6.8 °F 87% 30.08 in 10.0 mi NW 9.2 mph - N/A   Clear
12:56 AM 9.1 °F -1.9 °F 5.7 °F 86% 30.09 in 10.0 mi NW 6.9 mph - N/A   Scattered Clouds
1:16 AM 8.6 °F -3.7 °F 5.5 °F 87% 30.09 in 10.0 mi NW 8.1 mph - N/A   Mostly Cloudy
1:35 AM 8.4 °F -3.9 °F 5.0 °F 86% 30.10 in 10.0 mi NW 8.1 mph - N/A   Mostly Cloudy
1:56 AM 7.0 °F -3.3 °F 3.6 °F 86% 30.10 in 10.0 mi NW 5.8 mph - N/A   Scattered Clouds
2:16 AM 6.4 °F -5.2 °F 3.2 °F 87% 30.11 in 10.0 mi NW 6.9 mph - N/A   Clear
2:36 AM 5.7 °F -4.8 °F 2.5 °F 86% 30.11 in 10.0 mi NW 5.8 mph - N/A   Clear
2:56 AM 5.5 °F -6.3 °F 2.3 °F 86% 30.12 in 10.0 mi NW 6.9 mph - N/A   Clear
3:16 AM 4.1 °F -8.0 °F 1.2 °F 88% 30.12 in 10.0 mi NW 6.9 mph - N/A   Scattered Clouds
3:35 AM 3.9 °F -8.2 °F 1.0 °F 88% 30.12 in 10.0 mi NW 6.9 mph - N/A   Mostly Cloudy
3:56 AM 4.3 °F -4.9 °F 1.2 °F 87% 30.12 in 10.0 mi NW 4.6 mph - N/A   Overcast
4:15 AM 4.1 °F -6.7 °F 1.2 °F 88% 30.13 in 10.0 mi NNW 5.8 mph - N/A   Overcast
4:36 AM 4.6 °F -6.0 °F 1.6 °F 87% 30.13 in 10.0 mi NNW 5.8 mph - N/A   Overcast
4:55 AM 4.6 °F -2.5 °F 1.4 °F 86% 30.14 in 10.0 mi NW 3.5 mph - N/A   Overcast
5:15 AM 4.8 °F -4.3 °F 1.4 °F 86% 30.15 in 10.0 mi NW 4.6 mph - N/A   Overcast
5:36 AM 5.0 °F -2.1 °F 1.4 °F 85% 30.15 in 10.0 mi East 3.5 mph - N/A   Overcast
6:15 AM 5.0 °F - 1.8 °F 86% 30.15 in 10.0 mi Calm Calm - N/A Snow Light Snow
6:36 AM 4.6 °F -2.5 °F 1.4 °F 86% 30.15 in 10.0 mi NNE 3.5 mph - N/A   Overcast
6:55 AM 3.4 °F -4.0 °F -0.0 °F 86% 30.15 in 10.0 mi NNE 3.5 mph - N/A   Mostly Cloudy
7:16 AM 2.5 °F -5.0 °F -0.6 °F 87% 30.15 in 10.0 mi NNE 3.5 mph - N/A   Mostly Cloudy
7:36 AM 1.9 °F -5.6 °F -1.1 °F 87% 30.15 in 10.0 mi NNE 3.5 mph - N/A   Mostly Cloudy
7:55 AM 1.9 °F -5.6 °F -1.1 °F 87% 30.15 in 10.0 mi NNE 3.5 mph - N/A   Mostly Cloudy
8:16 AM 2.7 °F - -0.4 °F 87% 30.15 in 10.0 mi Calm Calm - N/A   Overcast
8:36 AM 3.2 °F - -0.4 °F 85% 30.15 in 10.0 mi Calm Calm - N/A   Overcast
8:55 AM 3.7 °F - -0.6 °F 82% 30.15 in 10.0 mi Calm Calm - N/A   Overcast
9:16 AM 3.6 °F - -0.6 °F 83% 30.15 in 10.0 mi Calm Calm - N/A   Overcast
9:36 AM 4.3 °F -2.9 °F 0.1 °F 83% 30.14 in 10.0 mi ESE 3.5 mph - N/A   Overcast
9:56 AM 4.8 °F -2.3 °F 0.5 °F 82% 30.15 in 10.0 mi SSE 3.5 mph - N/A   Overcast
10:15 AM 5.9 °F -1.1 °F 1.8 °F 83% 30.14 in 3.0 mi SE 3.5 mph - N/A Snow Light Snow
10:36 AM 6.3 °F - 1.9 °F 82% 30.15 in 2.5 mi Calm Calm - N/A Snow Light Snow
10:56 AM 6.6 °F -0.3 °F 2.3 °F 82% 30.15 in 2.0 mi ESE 3.5 mph - N/A Snow Light Snow
11:15 AM 7.3 °F 0.5 °F 3.0 °F 82% 30.14 in 1.8 mi ESE 3.5 mph - N/A Snow Light Snow
11:36 AM 8.1 °F -0.5 °F 3.9 °F 83% 30.13 in 1.5 mi SE 4.6 mph - N/A Snow Light Snow
11:55 AM 9.1 °F -0.7 °F 4.6 °F 82% 30.12 in 3.0 mi SSE 5.8 mph - N/A Snow Light Snow
12:16 PM 10.2 °F -0.6 °F 5.4 °F 81% 30.09 in 3.0 mi SE 6.9 mph - N/A   Haze
12:36 PM 10.4 °F -0.4 °F 5.9 °F 82% 30.08 in 7.0 mi SSE 6.9 mph - N/A   Overcast
12:56 PM 11.3 °F 1.9 °F 7.2 °F 83% 30.06 in 10.0 mi SE 5.8 mph - N/A   Overcast
1:16 PM 12.6 °F 1.1 °F 8.2 °F 83% 30.03 in 10.0 mi SE 8.1 mph - N/A   Overcast
1:35 PM 13.1 °F 2.8 °F 8.6 °F 82% 30.03 in 10.0 mi SE 6.9 mph - N/A   Overcast
1:56 PM 13.3 °F 3.0 °F 9.1 °F 84% 30.02 in 10.0 mi SE 6.9 mph - N/A   Overcast
2:16 PM 13.8 °F 3.7 °F 9.9 °F 84% 30.01 in 10.0 mi SE 6.9 mph - N/A   Overcast
2:35 PM 14.0 °F 2.9 °F 10.4 °F 86% 29.99 in 5.0 mi SE 8.1 mph - N/A Snow Light Snow
2:56 PM 14.9 °F 4.0 °F 12.4 °F 90% 29.97 in 1.0 mi SE 8.1 mph - N/A Snow Light Snow
3:16 PM 17.8 °F 8.5 °F 15.8 °F 92% 29.95 in 1.0 mi South 6.9 mph - N/A Snow Light Snow
3:36 PM 19.6 °F 10.6 °F 17.2 °F 91% 29.94 in 1.5 mi South 6.9 mph - N/A Snow Light Snow
3:56 PM 20.7 °F 11.9 °F 17.6 °F 88% 29.94 in 5.0 mi South 6.9 mph - N/A Snow Light Snow
4:15 PM 21.7 °F 14.3 °F 18.1 °F 86% 29.92 in 10.0 mi SSW 5.8 mph - N/A   Overcast
4:36 PM 22.8 °F - 19.0 °F 85% 29.92 in 10.0 mi Calm Calm - N/A   Overcast
4:56 PM 23.5 °F - 19.6 °F 85% 29.91 in 7.0 mi Calm Calm - N/A   Overcast
5:16 PM 25.5 °F 14.3 °F 22.8 °F 89% 29.90 in 4.0 mi WSW 12.7 mph 16.1 mph N/A Snow Light Snow
5:35 PM 27.3 °F 14.8 °F 24.4 °F 89% 29.89 in 7.0 mi WSW 17.3 mph 24.2 mph N/A   Overcast
5:56 PM 28.8 °F 16.6 °F 25.9 °F 89% 29.89 in 4.0 mi West 17.3 mph 24.2 mph N/A Snow Light Snow
6:35 PM 30.2 °F 17.8 °F 27.3 °F 89% 29.91 in 10.0 mi West 19.6 mph - N/A   Overcast
6:55 PM 31.1 °F 17.2 °F 27.7 °F 87% 29.91 in 7.0 mi NW 26.5 mph 32.2 mph N/A   Overcast
7:16 PM 30.4 °F 17.0 °F 26.8 °F 86% 29.93 in 5.0 mi NW 23.0 mph 31.1 mph N/A   Overcast
7:35 PM 28.2 °F 13.9 °F 24.8 °F 87% 29.95 in 2.5 mi NW 24.2 mph 32.2 mph N/A   Overcast
7:55 PM 25.9 °F 11.7 °F 22.5 °F 87% 29.96 in 5.0 mi NNW 20.7 mph 27.6 mph N/A   Overcast
8:16 PM 22.3 °F 5.6 °F 19.4 °F 89% 29.98 in 4.0 mi NNW 25.3 mph 31.1 mph N/A   Overcast
8:36 PM 21.0 °F 5.7 °F 18.3 °F 89% 30.00 in 7.0 mi NNW 19.6 mph 24.2 mph N/A   Overcast
8:56 PM 20.3 °F 3.7 °F 17.6 °F 89% 30.01 in 4.0 mi NNW 23.0 mph 28.8 mph N/A   Overcast
9:16 PM 19.8 °F 5.9 °F 16.7 °F 88% 30.02 in 10.0 mi NW 15.0 mph 19.6 mph N/A   Overcast
9:36 PM 20.1 °F 5.0 °F 16.3 °F 85% 30.03 in 10.0 mi NNW 18.4 mph 25.3 mph N/A   Overcast
9:56 PM 19.6 °F 4.7 °F 16.0 °F 86% 30.03 in 10.0 mi NW 17.3 mph 23.0 mph N/A   Overcast
10:16 PM 19.0 °F 4.5 °F 14.7 °F 83% 30.05 in 10.0 mi WNW 16.1 mph - N/A   Overcast
10:35 PM 19.4 °F 3.2 °F 14.5 °F 81% 30.05 in 7.0 mi NW 20.7 mph 27.6 mph N/A   Overcast
10:56 PM 19.0 °F 4.0 °F 14.2 °F 81% 30.05 in 10.0 mi NNW 17.3 mph 21.9 mph N/A   Overcast
11:15 PM 18.1 °F 3.4 °F 14.0 °F 84% 30.06 in 10.0 mi NNW 16.1 mph 19.6 mph N/A Snow Light Snow
11:41 PM 16.5 °F -0.1 °F 12.2 °F 83% 30.08 in 5.0 mi NW 19.6 mph 28.8 mph N/A   Overcast
11:55 PM 15.8 °F -1.5 °F 11.1 °F 82% 30.08 in 7.0 mi NW 20.7 mph 29.9 mph N/A   Mostly Cloudy